FW1304 Weather Reports


Display with metric or nautical units.
time (UTC)temp
F
wind
direction
speed
MPH
gust
MPH
rain 1hr
in
rain 24hr
in
rain mn
in
humidity
%
barometer
mb
20260502130334 42 246 0.0 0.0 0.00 0.00 0.00 72 1016.3
20260502123325 39 248 0.0 0.0 0.00 0.00 0.00 79 1016.4
20260502122820 38 248 0.0 0.0 0.00 0.00 0.00 80 1016.4
20260502122336 38 248 0.0 0.0 0.00 0.00 0.00 82 1016.4
20260502121833 38 248 0.0 0.0 0.00 0.00 0.00 82 1016.4
20260502121317 38 248 0.0 0.0 0.00 0.00 0.00 82 1016.3
20260502120825 37 248 0.0 0.0 0.00 0.00 0.00 83 1016.3
20260502120322 37 248 0.0 0.0 0.00 0.00 0.00 83 1016.3
20260502115824 37 248 0.0 0.0 0.00 0.00 0.00 83 1016.3
20260502115340 37 248 0.0 0.0 0.00 0.00 0.00 83 1016.2
20260502114828 36 248 0.0 0.0 0.00 0.00 0.00 83 1016.3
20260502114330 36 248 0.0 0.0 0.00 0.00 0.00 83 1016.2
20260502113818 36 248 0.0 0.0 0.00 0.00 0.00 83 1016.2
20260502113314 36 248 0.0 0.0 0.00 0.00 0.00 83 1016.3
20260502112818 36 248 0.0 0.0 0.00 0.00 0.00 83 1016.3
20260502112335 36 248 0.0 0.0 0.00 0.00 0.00 83 1016.3
20260502111823 36 248 0.0 0.0 0.00 0.00 0.00 83 1016.3
20260502111322 36 248 0.0 0.0 0.00 0.00 0.00 82 1016.3
20260502110818 36 248 0.0 0.0 0.00 0.00 0.00 82 1016.3
20260502110325 36 248 0.0 0.0 0.00 0.00 0.00 82 1016.2
20260502105828 36 247 0.0 0.0 0.00 0.00 0.00 81 1016.2
20260502105326 36 244 0.0 0.0 0.00 0.00 0.00 81 1016.3
20260502104843 36 249 0.0 0.0 0.00 0.00 0.00 80 1016.3
20260502104324 36 246 0.0 0.0 0.00 0.00 0.00 78 1016.2
20260502103829 36 246 0.0 0.0 0.00 0.00 0.00 77 1016.2
20260502103325 36 245 0.0 0.0 0.00 0.00 0.00 77 1016.2
20260502102821 36 245 0.0 0.0 0.00 0.00 0.00 78 1016.2
20260502102338 36 245 0.0 0.0 0.00 0.00 0.00 78 1016.2
20260502101825 36 245 0.0 0.0 0.00 0.00 0.00 77 1016.1
20260502101323 36 245 0.0 0.0 0.00 0.00 0.00 77 1016.1
20260502100819 36 245 0.0 0.0 0.00 0.00 0.00 77 1016.1
20260502100327 36 245 0.0 0.0 0.00 0.00 0.00 76 1016.0
20260502091327 39 238 0.0 0.0 0.00 0.00 0.00 70 1015.9
20260502090823 39 243 0.0 0.0 0.00 0.00 0.00 70 1015.8
20260502090328 39 242 0.0 0.0 0.00 0.00 0.00 69 1015.8
20260502071331 42 257 0.0 0.0 0.00 0.00 0.00 61 1016.1
20260502070818 42 242 0.0 0.0 0.00 0.00 0.00 61 1016.1
20260502070335 42 242 0.0 0.0 0.00 0.00 0.00 61 1016.1
20260502065837 42 239 0.0 0.0 0.00 0.00 0.00 61 1016.1
20260502065325 42 238 0.0 0.0 0.00 0.00 0.00 61 1016.2
20260502064838 42 239 0.0 0.0 0.00 0.00 0.00 60 1016.2
20260502064321 42 241 0.0 0.0 0.00 0.00 0.00 60 1016.2
20260502063838 42 242 0.0 0.0 0.00 0.00 0.00 60 1016.3
20260502063325 42 243 0.0 0.0 0.00 0.00 0.00 60 1016.3
20260502062820 42 242 0.0 0.0 0.00 0.00 0.00 61 1016.3
20260502062316 42 240 0.0 0.0 0.00 0.00 0.00 61 1016.3
20260502061824 42 246 0.0 0.0 0.00 0.00 0.00 60 1016.3
20260502060822 43 242 0.0 0.0 0.00 0.00 0.00 60 1016.3
20260502060338 43 246 0.0 0.0 0.00 0.00 0.00 60 1016.3
20260502055822 42 244 0.0 0.0 0.00 0.00 0.00 60 1016.3
20260502055329 42 242 0.0 0.0 0.00 0.00 0.00 60 1016.3
20260502054826 42 244 0.0 0.0 0.00 0.00 0.00 60 1016.2
20260502054350 42 246 0.0 0.0 0.00 0.00 0.00 61 1016.2
20260502053817 42 238 0.0 0.0 0.00 0.00 0.00 60 1016.3
20260502053314 42 242 0.0 0.0 0.00 0.00 0.00 61 1016.3
20260502052817 41 249 0.0 0.0 0.00 0.00 0.00 64 1016.3
20260502052334 41 245 0.0 0.0 0.00 0.00 0.00 65 1016.3
20260502051822 41 246 0.0 0.0 0.00 0.00 0.00 67 1016.4
20260502051344 40 251 0.0 0.0 0.00 0.00 0.00 68 1016.4
20260502050901 40 251 0.0 0.0 0.00 0.00 0.00 68 1016.4
20260502050346 40 251 0.0 0.0 0.00 0.00 0.00 68 1016.4
20260502045829 40 251 0.0 0.0 0.00 0.00 0.00 68 1016.5
20260502045317 41 251 0.0 0.0 0.00 0.00 0.00 67 1016.4
20260502044832 41 251 0.0 0.0 0.00 0.00 0.00 66 1016.4
20260502044318 41 250 0.0 0.0 0.00 0.00 0.00 65 1016.4
20260502043824 41 250 0.0 0.0 0.00 0.00 0.00 65 1016.4
20260502043321 41 250 0.0 0.0 0.00 0.00 0.00 64 1016.4
20260502042843 42 250 0.0 0.0 0.00 0.00 0.00 65 1016.4
20260502042339 42 241 0.0 0.0 0.00 0.00 0.00 63 1016.4
20260502041834 42 248 0.0 0.0 0.00 0.00 0.00 60 1016.4
20260502041334 43 244 0.0 0.0 0.00 0.00 0.00 59 1016.4
20260502040821 44 239 0.0 0.0 0.00 0.00 0.00 58 1016.4
20260502040338 44 239 0.0 0.0 0.00 0.00 0.00 56 1016.4
20260502035819 44 239 0.0 0.0 0.00 0.00 0.00 55 1016.5
20260502035337 45 239 0.0 0.0 0.00 0.00 0.00 51 1016.4
20260502034845 45 237 0.0 0.0 0.00 0.00 0.00 52 1016.4
20260502034331 45 239 0.0 0.0 0.00 0.00 0.00 50 1016.5
20260502033818 45 240 0.0 0.0 0.00 0.00 0.00 49 1016.4
20260502033335 45 240 0.0 0.0 0.00 0.00 0.00 48 1016.4
20260502032838 46 242 0.0 0.0 0.00 0.00 0.00 49 1016.4
20260502032325 46 242 0.0 0.0 0.00 0.00 0.00 48 1016.4
20260502031822 46 246 0.0 0.0 0.00 0.00 0.00 47 1016.4
20260502031327 46 247 0.0 0.0 0.00 0.00 0.00 47 1016.4
20260502030834 47 248 0.0 0.0 0.00 0.00 0.00 44 1016.4
20260502030400 47 248 0.0 0.0 0.00 0.00 0.00 43 1016.5
20260502025813 47 248 0.0 0.0 0.00 0.00 0.00 42 1016.4
20260502025346 47 248 0.0 0.0 0.00 0.00 0.00 42 1016.5
20260502024821 47 249 0.0 0.0 0.00 0.00 0.00 43 1016.4
20260502024324 47 252 0.0 0.0 0.00 0.00 0.00 44 1016.5
20260502023832 47 253 0.0 0.0 0.00 0.00 0.00 44 1016.5
20260502023328 47 253 0.0 0.0 0.00 0.00 0.00 43 1016.5
20260502022830 47 254 0.0 0.0 0.00 0.00 0.00 43 1016.4
20260502022316 47 254 0.0 0.0 0.00 0.00 0.00 44 1016.5
20260502021832 47 254 0.0 0.0 0.00 0.00 0.00 45 1016.4
20260502021335 47 256 0.0 0.0 0.00 0.00 0.00 48 1016.4
20260502020829 48 263 0.0 0.0 0.00 0.00 0.00 46 1016.3
20260502020337 48 263 0.0 0.0 0.00 0.00 0.00 43 1016.2
20260502015827 49 263 0.0 0.0 0.00 0.00 0.00 43 1016.1
20260502015315 49 263 0.0 0.0 0.00 0.00 0.00 42 1016.1
20260502014829 49 263 0.0 0.0 0.00 0.00 0.00 43 1016.0
20260502014333 49 274 0.0 0.0 0.00 0.00 0.00 45 1015.9
20260502013820 49 360 0.0 0.0 0.00 0.00 0.00 46 1015.9
20260502013318 50 360 0.0 0.0 0.00 0.00 0.00 45 1015.9
20260502012821 50 360 0.0 0.0 0.00 0.00 0.00 44 1015.8
20260502012333 50 360 0.0 0.0 0.00 0.00 0.00 42 1015.8
20260502011820 50 360 0.0 0.0 0.00 0.00 0.00 38 1015.8
20260502011317 51 360 0.0 0.0 0.00 0.00 0.00 37 1015.8
20260502010831 51 360 0.0 0.0 0.00 0.00 0.00 36 1015.8
20260502010318 51 360 0.0 0.0 0.00 0.00 0.00 36 1015.8
20260502005817 51 360 0.0 0.0 0.00 0.00 0.00 36 1015.8
20260502005315 51 360 0.0 0.0 0.00 0.00 0.00 35 1015.8
20260502004832 52 360 0.0 0.0 0.00 0.00 0.00 35 1015.7
20260502004334 52 360 0.0 0.0 0.00 0.00 0.00 35 1015.7
20260502003821 52 360 0.0 0.0 0.00 0.00 0.00 34 1015.7
20260502003337 52 360 0.0 0.0 0.00 0.00 0.00 34 1015.7
20260502002840 52 360 0.0 0.0 0.00 0.00 0.00 34 1015.8
20260502002327 52 360 0.0 0.0 0.00 0.00 0.00 35 1015.7
20260502001844 52 360 0.0 0.0 0.00 0.00 0.00 35 1015.8
20260502001346 52 360 0.0 0.0 0.00 0.00 0.00 35 1015.8
20260502000822 52 355 0.0 0.0 0.00 0.00 0.00 34 1015.8
20260502000339 52 360 0.0 0.0 0.00 0.00 0.00 34 1015.8
20260501235837 52 311 0.0 0.0 0.00 0.00 0.00 34 1015.8
20260501235333 52 334 0.0 0.0 0.00 0.00 0.00 34 1015.8
20260501234821 52 348 0.0 0.0 0.00 0.00 0.00 34 1015.8
20260501234323 52 330 0.0 0.0 0.00 0.00 0.00 34 1015.8
20260501233840 52 336 0.0 0.0 0.00 0.00 0.00 34 1015.8
20260501233327 52 317 0.0 0.0 0.00 0.00 0.00 34 1015.8
20260501232823 53 11 0.0 0.0 0.00 0.00 0.00 34 1015.9
20260501232320 53 360 0.0 0.0 0.00 0.00 0.00 34 1015.8
20260501231826 52 26 0.0 0.0 0.00 0.00 0.00 33 1015.8
20260501231330 52 13 0.0 0.0 0.00 0.00 0.00 33 1015.8
20260501230818 52 30 0.0 0.0 0.00 0.00 0.00 33 1015.8
20260501230334 53 10 0.0 0.0 0.00 0.00 0.00 32 1015.9
20260501225836 53 30 0.0 4.0 0.00 0.00 0.00 31 1015.9
20260501225324 53 26 0.0 6.0 0.00 0.00 0.00 31 1015.8
20260501224820 54 24 0.0 4.0 0.00 0.00 0.00 32 1015.8
20260501224323 54 250 0.0 1.0 0.00 0.00 0.00 32 1015.8
20260501223859 53 300 0.0 4.0 0.00 0.00 0.00 33 1015.8
20260501223326 54 32 0.0 4.0 0.00 0.00 0.00 32 1015.8
20260501222821 53 15 0.0 0.0 0.00 0.00 0.00 33 1015.8
20260501222333 53 344 0.0 0.0 0.00 0.00 0.00 34 1015.9
20260501221829 53 360 0.0 0.0 0.00 0.00 0.00 33 1015.9
20260501221333 53 26 0.0 0.0 0.00 0.00 0.00 34 1015.9
20260501220821 53 69 0.0 0.0 0.00 0.00 0.00 34 1015.9
20260501220337 53 15 0.0 4.0 0.00 0.00 0.00 32 1015.9
20260501215819 53 21 0.0 3.0 0.00 0.00 0.00 33 1015.9
20260501215355 53 350 0.0 0.0 0.00 0.00 0.00 33 1015.9
20260501214823 54 231 0.0 0.0 0.00 0.00 0.00 34 1015.9
20260501214326 54 11 0.0 1.0 0.00 0.00 0.00 34 1015.9
20260501213814 54 248 0.0 2.0 0.00 0.00 0.00 33 1016.0
20260501213329 54 284 0.0 2.0 0.00 0.00 0.00 34 1015.9
20260501212831 54 270 0.0 0.0 0.00 0.00 0.00 34 1016.0
20260501212327 53 344 0.0 0.0 0.00 0.00 0.00 34 1016.0
20260501211831 53 329 0.0 1.0 0.00 0.00 0.00 35 1016.1
20260501211314 53 11 0.0 4.0 0.00 0.00 0.00 34 1016.1
20260501210851 53 360 0.0 4.0 0.00 0.00 0.00 34 1016.1
20260501210346 53 5 0.0 0.0 0.00 0.00 0.00 33 1016.1
20260501205818 53 313 0.0 0.0 0.00 0.00 0.00 35 1016.1
20260501205352 53 292 0.0 1.0 0.00 0.00 0.00 37 1016.2
20260501204848 52 275 0.0 1.0 0.00 0.00 0.00 34 1016.2
20260501204323 53 292 0.0 0.0 0.00 0.00 0.00 34 1016.3
20260501203820 53 53 0.0 0.0 0.00 0.00 0.00 34 1016.2
20260501203327 53 28 0.0 1.0 0.00 0.00 0.00 32 1016.3
20260501202828 52 309 0.0 1.0 0.00 0.00 0.00 36 1016.4
20260501202324 52 314 0.0 1.0 0.00 0.00 0.00 36 1016.4
20260501201832 52 39 0.0 4.0 0.00 0.00 0.00 36 1016.4
20260501201344 52 346 0.0 4.0 0.00 0.00 0.00 35 1016.5
20260501200831 53 10 0.0 4.0 0.00 0.00 0.00 34 1016.4
20260501200328 52 26 0.0 2.0 0.00 0.00 0.00 35 1016.5
20260501195851 52 350 0.0 2.0 0.00 0.00 0.00 36 1016.5
20260501195328 51 319 0.0 4.0 0.00 0.00 0.00 35 1016.6
20260501194815 51 5 0.0 4.0 0.00 0.00 0.00 38 1016.6
20260501194319 51 63 0.0 4.0 0.00 0.00 0.00 36 1016.5
20260501193831 52 13 0.0 1.0 0.00 0.00 0.00 36 1016.5
20260501193320 52 341 0.0 0.0 0.00 0.00 0.00 35 1016.5
20260501192822 52 50 0.0 1.0 0.00 0.00 0.00 37 1016.5
20260501192338 52 39 0.0 1.0 0.00 0.00 0.00 36 1016.6
20260501191826 51 348 0.0 1.0 0.00 0.00 0.00 38 1016.6
20260501191316 52 329 0.0 4.0 0.00 0.00 0.00 37 1016.6
20260501190830 52 360 0.0 4.0 0.00 0.00 0.00 36 1016.6
20260501190346 51 328 0.0 0.0 0.00 0.00 0.00 36 1016.6
20260501185827 51 259 0.0 2.0 0.00 0.00 0.00 36 1016.7
20260501185315 51 325 0.0 2.0 0.00 0.00 0.00 37 1016.7
20260501184832 51 342 0.0 2.0 0.00 0.00 0.00 39 1016.6
20260501184315 51 336 0.0 5.0 0.00 0.00 0.00 36 1016.7
20260501183822 51 47 1.0 5.0 0.00 0.00 0.00 36 1016.6
20260501183319 51 29 0.0 5.0 0.00 0.00 0.00 39 1016.6
20260501182821 50 298 0.0 1.0 0.00 0.00 0.00 37 1016.6
20260501182338 50 17 0.0 4.0 0.00 0.00 0.00 39 1016.7
20260501181825 50 11 0.0 4.0 0.00 0.00 0.00 38 1016.7
20260501181330 50 36 0.0 1.0 0.00 0.00 0.00 38 1016.8
20260501180844 50 342 0.0 4.0 0.00 0.00 0.00 39 1016.8
20260501180338 50 11 0.0 4.0 0.00 0.00 0.00 38 1016.9
20260501175821 50 333 0.0 4.0 0.00 0.00 0.00 36 1016.9
20260501175338 51 43 0.0 1.0 0.00 0.00 0.00 39 1016.9
20260501174826 51 21 0.0 4.0 0.00 0.00 0.00 40 1016.9
20260501174321 51 63 0.0 2.0 0.00 0.00 0.00 38 1016.9
20260501173838 50 60 0.0 5.0 0.00 0.00 0.00 39 1017.0
20260501173333 50 54 0.0 5.0 0.00 0.00 0.00 40 1017.0
20260501172836 49 22 1.0 4.0 0.00 0.00 0.00 40 1017.0
20260501172324 49 5 1.0 4.0 0.00 0.00 0.00 40 1017.0
20260501171820 49 342 0.0 2.0 0.00 0.00 0.00 40 1017.1
20260501171323 49 355 0.0 2.0 0.00 0.00 0.00 39 1017.1
20260501170830 49 60 0.0 4.0 0.00 0.00 0.00 38 1017.1
20260501170328 49 94 0.0 6.0 0.00 0.00 0.00 40 1017.1
20260501165824 49 25 1.0 6.0 0.00 0.00 0.00 40 1017.2
20260501165341 49 15 0.0 7.0 0.00 0.00 0.00 39 1017.2
20260501164858 48 27 0.0 7.0 0.00 0.00 0.00 42 1017.2
20260501164337 49 22 0.0 2.0 0.00 0.00 0.00 39 1017.2
20260501163824 48 41 0.0 7.0 0.00 0.00 0.00 39 1017.2
20260501163341 48 360 1.0 7.0 0.00 0.00 0.00 39 1017.3
20260501162814 48 24 1.0 6.0 0.00 0.00 0.00 40 1017.3
20260501162330 48 32 1.0 6.0 0.00 0.00 0.00 40 1017.2
20260501161846 47 24 0.0 4.0 0.00 0.00 0.00 41 1017.2
20260501161324 47 21 1.0 5.0 0.00 0.00 0.00 40 1017.3
20260501160840 48 9 0.0 6.0 0.00 0.00 0.00 40 1017.2
20260501160328 47 349 0.0 6.0 0.00 0.00 0.00 42 1017.3
20260501155852 47 350 0.0 4.0 0.00 0.00 0.00 43 1017.2
20260501155318 47 5 0.0 4.0 0.00 0.00 0.00 40 1017.2
20260501154835 48 344 0.0 5.0 0.00 0.00 0.00 41 1017.1
20260501154318 48 15 1.0 5.0 0.00 0.00 0.00 42 1017.2
20260501153325 48 24 0.0 4.0 0.00 0.00 0.00 42 1017.1
20260501152848 47 56 0.0 4.0 0.00 0.00 0.00 44 1017.2
20260501152340 47 60 0.0 0.0 0.00 0.00 0.00 44 1017.2
20260501151814 47 22 0.0 6.0 0.00 0.00 0.00 44 1017.2
20260501151318 47 22 1.0 6.0 0.00 0.00 0.00 44 1017.2
20260501150834 47 16 0.0 5.0 0.00 0.00 0.00 45 1017.2
20260501150321 46 24 0.0 0.0 0.00 0.00 0.00 47 1017.2
20260501145818 46 69 0.0 2.0 0.00 0.00 0.00 44 1017.2
20260501145315 47 66 0.0 2.0 0.00 0.00 0.00 46 1017.2
20260501144822 46 111 0.0 2.0 0.00 0.00 0.00 45 1017.2
20260501144336 46 23 0.0 2.0 0.00 0.00 0.00 45 1017.2
20260501143822 46 40 0.0 0.0 0.00 0.00 0.00 46 1017.2
20260501143339 46 74 0.0 2.0 0.00 0.00 0.00 48 1017.2
20260501142814 46 42 0.0 2.0 0.00 0.00 0.00 48 1017.1
20260501142329 45 116 0.0 2.0 0.00 0.00 0.00 48 1017.1
20260501141845 45 28 0.0 2.0 0.00 0.00 0.00 49 1017.1
20260501141324 45 73 0.0 8.0 0.00 0.00 0.00 50 1017.1
20260501140820 45 86 1.0 8.0 0.00 0.00 0.00 50 1017.1
20260501140329 44 39 0.0 2.0 0.00 0.00 0.00 50 1017.1